Tracking 33188 objects as of 10-Feb-2026
HD Live streaming from Space Station
objects crossing your sky now

FENGYUN 1C DEB

Track FENGYUN 1C DEB now!
10-day predictions


NORAD ID: 37921
Int'l Code: 1999-025ENW
Perigee: 857.4 km
Apogee: 977.9 km
Inclination: 99.0 °
Period: 103.2 minutes
Semi major axis: 7288 km
RCS: 0.0041 m2 (small)
Launch date: May 10, 1999
Source: People's Republic of China (PRC)
Launch site: Taiyaun Space Center, China (TSC)

Note: This is SATELLITE DEBRIS
Your satellite tracking list
Your tracking list is empty




NASA's NSSDC Master Catalog

Two Line Element Set (TLE):
1 37921U 99025ENW 26034.36062819  .00000132  00000-0  12639-3 0  9997
2 37921  99.0152  79.2764 0082636 314.7865  44.6595 13.95191993638813
Source of the keplerian elements: AFSPC